[[{"header":{"parameterUnit":"m.s-1","parameterCategory":1,"la1":30.2991,"la2":30.254,"lo1":-89.0895,"lo2":-89.0444,"dy":0.0017,"dx":0.0017,"nx":28,"ny":28,"refTime":"2023-07-17T21:00:00:Z","depth":0,"parameterNumber":2,"parameterNumberName":"U-component_of_WINDS"},"data":[0,0,0,0,0,0,0,0,0,0,0,0,0,0,0,0,0,0,0,0,0,0,0,0,0,0,0,0,0,0,0,0,0,0,0,0,0,0,0,0,0,0,0,0,0,0,0,0,0,0,0,0,0,0,0,0,0,0,1.6337,1.6337,0,1.6278,1.6277,1.6277,1.6163,1.6161,1.6158,1.6156,1.6097,1.6097,1.6097,0,0,0,0,0,0,0,0,0,0,0,0,0,1.6355,1.6355,1.6337,1.6337,1.6336,1.6278,1.6277,1.6277,1.6163,1.6161,1.6158,1.6155,1.6096,1.6097,1.6097,0,0,0,0,0,0,0,0,0,0,0,0,0,1.6327,1.6355,1.6338,1.6272,1.6266,1.6278,1.6277,1.6276,1.6164,1.6161,1.6157,1.6154,1.6096,1.6097,1.6098,1.6169,0,0,1.61,1.61,0,0,0,0,0,0,0,0,1.6329,1.6326,1.6283,1.6277,1.627,1.6224,1.6261,1.624,1.6165,1.6203,1.6156,1.6152,1.6142,1.6139,1.6135,1.6166,1.6163,1.61,1.61,1.6101,1.6101,0,0,0,0,0,0,0,1.6331,1.6328,1.6314,1.6282,1.6274,1.6247,1.6239,1.6257,1.6192,1.6199,1.6191,1.6185,1.6138,1.6134,1.6133,1.6162,1.61,1.61,1.6101,1.6101,1.6251,1.6255,0,0,0,0,0,0,1.6342,1.6331,1.6316,1.6312,1.6292,1.6249,1.6241,1.6242,1.6191,1.618,1.6188,1.618,1.6135,1.6132,1.613,1.6211,1.6101,1.6101,1.6102,1.6248,1.6252,1.6256,0,0,0,0,0,0,1.6343,1.6342,1.6318,1.6319,1.6314,1.6253,1.6255,1.6243,1.6239,1.6183,1.6171,1.6197,1.6132,1.6129,1.616,1.6207,1.6102,1.6102,1.6244,1.6249,1.6254,1.6374,0,0,0,0,0,0,1.6344,1.6343,1.6368,1.6321,1.6314,1.6349,1.6258,1.6244,1.6241,1.623,1.6188,1.6177,1.6129,1.616,1.6161,1.6207,1.6103,1.6239,1.6246,1.6252,1.6365,1.6382,1.6397,0,0,0,0,0,1.6345,1.6404,1.637,1.6369,1.6345,1.6352,1.6349,1.6292,1.6245,1.6271,1.6235,1.6179,1.6202,1.6164,1.6164,1.6211,1.6236,1.6244,1.6252,1.6358,1.6379,1.6397,0,0,0,0,0,0,1.6458,1.6396,1.6358,1.6404,1.6384,1.6333,1.6363,1.6315,1.6308,1.6298,1.6228,1.622,1.6261,1.6239,1.6197,1.6278,1.621,1.6219,1.6291,1.631,1.6326,1.6331,1.6103,0,0,0,0,0,1.6489,1.6499,1.6445,1.649,1.6482,1.6425,1.6426,1.6384,1.6361,1.6352,1.6318,1.6298,1.6301,1.6305,1.6304,1.6362,1.6352,1.6394,1.641,1.6424,1.6432,1.6463,1.6481,1.6282,1.6282,1.6282,0,0,1.6552,1.6519,1.653,1.6512,1.6492,1.6505,1.6419,1.6436,1.6445,1.6354,1.6382,1.6357,1.6331,1.6376,1.6395,1.6359,1.6485,1.6434,1.6445,1.6446,1.6473,1.6492,1.6509,1.6288,1.6287,1.6286,0,0,1.6673,1.6649,1.6685,1.6667,1.6638,1.66,1.6609,1.6565,1.6545,1.6572,1.6505,1.6516,1.6522,1.6507,1.65,1.6618,1.6567,1.662,1.6704,1.6735,1.675,1.6764,1.6807,1.6824,1.6629,1.6629,1.6629,0,1.6754,1.6771,1.6709,1.6731,1.6726,1.6646,1.6683,1.6668,1.6641,1.664,1.6601,1.6608,1.6585,1.6626,1.6656,1.6652,1.6661,1.6624,1.6753,1.6766,1.6778,1.6818,1.6835,1.6636,1.6635,1.6634,1.6633,0,1.6874,1.6886,1.6919,1.6895,1.6894,1.6923,1.6868,1.6874,1.6833,1.68,1.683,1.6799,1.6792,1.6798,1.6758,1.6835,1.6814,1.6765,1.6696,1.6804,1.6842,1.6857,1.6645,1.6643,1.6641,1.6639,0,0,1.7062,1.7006,1.7019,1.7009,1.6972,1.6981,1.7008,1.7001,1.7009,1.6993,1.7015,1.7023,1.6978,1.697,1.6928,1.6955,1.7054,1.6903,1.6901,1.6933,1.7139,1.7176,1.7195,1.702,1.7022,1.7024,1.7141,0,1.7176,1.7218,1.7165,1.7218,1.7231,1.7156,1.7179,1.716,1.7131,1.7137,1.7104,1.7112,1.7051,1.7047,1.707,1.7037,1.7094,1.7027,1.704,1.7041,1.7049,1.7214,1.7254,1.7365,1.7155,1.7158,1.7159,0,1.7313,1.7305,1.7361,1.7323,1.7326,1.7348,1.7339,1.7346,1.7323,1.73,1.7293,1.7243,1.7268,1.7201,1.7236,1.7192,1.7194,1.7179,1.7182,1.7181,1.7107,1.7219,1.7399,1.7416,1.7181,1.718,1.7178,0,1.7447,1.745,1.7484,1.7477,1.7433,1.7451,1.7434,1.7408,1.7408,1.7401,1.74,1.7396,1.7394,1.7392,1.7343,1.7299,1.7385,1.7313,1.7367,1.7368,1.7388,1.7387,1.7572,1.7389,1.7389,1.7389,1.7388,0,1.7578,1.7616,1.7544,1.7565,1.7605,1.7544,1.7586,1.7561,1.754,1.7555,1.7491,1.7507,1.7441,1.7451,1.7413,1.7448,1.7447,1.743,1.742,1.7436,1.7439,1.7437,1.7428,1.7393,1.7392,1.7391,1.739,0,1.7734,1.7687,1.7719,1.7676,1.7667,1.7698,1.7662,1.768,1.7647,1.7669,1.767,1.7619,1.7627,1.7578,1.7578,1.7552,1.7607,1.7583,1.7615,1.7607,1.7664,1.766,1.7854,1.7878,1.768,1.7682,1.7683,0,1.7821,1.7848,1.7809,1.7815,1.7801,1.7812,1.7812,1.7755,1.7758,1.7736,1.7758,1.7761,1.7761,1.7778,1.7741,1.7741,1.7717,1.7786,1.7717,1.7733,1.772,1.7719,1.7722,1.78,1.7802,1.7804,1.7806,0,1.7982,1.7958,1.796,1.7957,1.7959,1.7953,1.7942,1.7951,1.7889,1.7897,1.7905,1.7905,1.7905,1.791,1.7903,1.7886,1.7837,1.7828,1.7841,1.7858,1.7876,1.7868,1.7654,1.7824,1.7822,1.7821,1.782,1.7819,1.8106,1.8127,1.8104,1.811,1.8096,1.8089,1.8105,1.8075,1.808,1.8076,1.8042,1.8058,1.8037,1.8023,1.8011,1.8023,1.7991,1.8009,1.8013,1.8019,1.803,1.7874,1.8021,1.8021,1.802,1.802,1.8019,0,1.8263,1.8245,1.8252,1.824,1.8245,1.8199,1.8186,1.8194,1.8208,1.8193,1.8194,1.8205,1.8211,1.8175,1.8176,1.8193,1.817,1.8195,1.8193,1.819,1.8058,1.8047,1.8213,1.8213,1.8213,1.8213,1.8213,1.8213,1.8346,1.8381,1.8355,1.8383,1.8364,1.8379,1.8375,1.8369,1.8357,1.8372,1.8376,1.8353,1.8331,1.833,1.8333,1.8323,1.8327,1.8359,1.8342,1.8218,1.8199,1.8182,1.8171,1.836,1.8361,1.8473,1.8474,1.8475]},{"header":{"parameterUnit":"m.s-1","parameterCategory":1,"la1":30.2991,"la2":30.254,"lo1":-89.0895,"lo2":-89.0444,"dy":0.0017,"dx":0.0017,"nx":28,"ny":28,"refTime":"2023-07-17T21:00:00:Z","depth":0,"parameterNumber":3,"parameterNumberName":"V-component_of_WINDS"},"data":[0,0,0,0,0,0,0,0,0,0,0,0,0,0,0,0,0,0,0,0,0,0,0,0,0,0,0,0,0,0,0,0,0,0,0,0,0,0,0,0,0,0,0,0,0,0,0,0,0,0,0,0,0,0,0,0,0,0,1.3142,1.3144,0,1.3318,1.332,1.3322,1.3362,1.3361,1.3359,1.3358,1.3537,1.3543,1.3549,0,0,0,0,0,0,0,0,0,0,0,0,0,1.2841,1.2846,1.3142,1.3144,1.3146,1.3318,1.332,1.3322,1.3362,1.3361,1.3359,1.3358,1.3536,1.3542,1.355,0,0,0,0,0,0,0,0,0,0,0,0,0,1.299,1.2848,1.3142,1.3187,1.3193,1.3317,1.332,1.3323,1.3362,1.3361,1.3359,1.3357,1.3533,1.3542,1.3551,1.3642,0,0,1.3578,1.3582,0,0,0,0,0,0,0,0,1.2981,1.3001,1.3178,1.3184,1.3191,1.3316,1.328,1.343,1.3363,1.3298,1.3358,1.3356,1.3465,1.348,1.3517,1.3651,1.3658,1.3578,1.3584,1.3588,1.359,0,0,0,0,0,0,0,1.2971,1.2993,1.3212,1.3181,1.3188,1.3198,1.3218,1.3308,1.339,1.3304,1.3307,1.3327,1.3468,1.3508,1.3521,1.3661,1.3578,1.3586,1.3592,1.3595,1.388,1.3882,0,0,0,0,0,0,1.2953,1.2984,1.3206,1.3217,1.3079,1.3205,1.3227,1.3278,1.3389,1.3404,1.3328,1.3328,1.3494,1.3511,1.3528,1.3643,1.3588,1.3596,1.3601,1.3878,1.3881,1.3883,0,0,0,0,0,0,1.2946,1.2972,1.3199,1.3102,1.3131,1.3213,1.3269,1.3282,1.3322,1.3408,1.3422,1.3354,1.3493,1.3515,1.3614,1.365,1.36,1.3608,1.3875,1.3879,1.3882,1.3875,0,0,0,0,0,0,1.2937,1.2969,1.3005,1.3102,1.3136,1.3282,1.3272,1.3287,1.3337,1.3339,1.3436,1.345,1.3493,1.36,1.3623,1.3661,1.3615,1.3872,1.3877,1.3881,1.3872,1.3877,1.3882,0,0,0,0,0,1.2926,1.2996,1.3007,1.3033,1.3183,1.3284,1.3304,1.3352,1.334,1.3377,1.3432,1.3447,1.3642,1.361,1.3635,1.3677,1.387,1.3876,1.388,1.387,1.3876,1.3882,0,0,0,0,0,0,1.29,1.3009,1.3023,1.3125,1.3195,1.3291,1.3339,1.3358,1.3432,1.3431,1.3487,1.3509,1.3604,1.3651,1.3613,1.3773,1.3756,1.3766,1.3739,1.3746,1.3751,1.3738,1.3622,0,0,0,0,0,1.2906,1.298,1.3071,1.3153,1.3187,1.3257,1.3303,1.3334,1.3409,1.3439,1.3501,1.3573,1.3651,1.3701,1.3777,1.3879,1.3901,1.392,1.3925,1.3929,1.3937,1.3996,1.4006,1.39,1.39,1.39,0,0,1.292,1.2989,1.3031,1.3149,1.3207,1.3283,1.3281,1.3361,1.3417,1.3451,1.3548,1.3596,1.368,1.3781,1.3829,1.3823,1.3971,1.3935,1.3937,1.3944,1.4002,1.4012,1.4021,1.3903,1.3903,1.3902,0,0,1.2984,1.3042,1.3118,1.3176,1.3264,1.331,1.3328,1.3421,1.3454,1.3553,1.358,1.3648,1.378,1.3839,1.3886,1.3973,1.399,1.3996,1.4022,1.4079,1.4087,1.4095,1.4127,1.4138,1.4004,1.4004,1.4004,0,1.299,1.3104,1.3154,1.3233,1.3284,1.3318,1.3395,1.3449,1.3557,1.3592,1.3583,1.3751,1.381,1.3926,1.3947,1.3984,1.4007,1.3986,1.4082,1.409,1.4098,1.4129,1.4141,1.4004,1.4004,1.4004,1.4004,0,1.3108,1.3186,1.3237,1.3341,1.3398,1.3475,1.3537,1.3589,1.3615,1.3662,1.3762,1.3834,1.3926,1.3955,1.3981,1.4076,1.4069,1.407,1.4055,1.4108,1.4138,1.415,1.4005,1.4005,1.4004,1.4004,0,0,1.316,1.3291,1.3309,1.3358,1.3457,1.3519,1.3598,1.3688,1.3732,1.3805,1.3873,1.3985,1.3987,1.4041,1.4074,1.4123,1.4189,1.4119,1.4122,1.413,1.4298,1.4298,1.4311,1.42,1.4202,1.4204,1.4292,0,1.3237,1.338,1.3427,1.3546,1.362,1.3654,1.3722,1.3791,1.3837,1.3906,1.3956,1.4035,1.4031,1.4064,1.4114,1.417,1.4223,1.4164,1.4265,1.4268,1.4244,1.4326,1.4326,1.4405,1.4304,1.4306,1.4307,0,1.3346,1.3422,1.3548,1.3639,1.3672,1.3733,1.382,1.3886,1.3965,1.3994,1.4055,1.4084,1.4168,1.4147,1.4264,1.4223,1.4267,1.43,1.4304,1.4317,1.4292,1.4342,1.4431,1.4443,1.4326,1.4325,1.4323,0,1.3374,1.3507,1.36,1.364,1.3748,1.3791,1.3838,1.3915,1.3966,1.4042,1.4076,1.416,1.4207,1.4271,1.4323,1.4303,1.4436,1.4419,1.4464,1.4463,1.4492,1.449,1.459,1.4517,1.4517,1.4517,1.4517,0,1.3456,1.3532,1.3614,1.3671,1.3758,1.3812,1.3896,1.3945,1.4013,1.4081,1.4114,1.4177,1.424,1.4312,1.4352,1.4444,1.4464,1.4491,1.4501,1.4489,1.4486,1.452,1.4516,1.452,1.452,1.4519,1.4518,0,1.3502,1.356,1.3664,1.3758,1.3783,1.3843,1.3924,1.3981,1.4028,1.4113,1.4136,1.421,1.4296,1.4353,1.4462,1.449,1.459,1.4598,1.4564,1.4569,1.4612,1.4607,1.4739,1.4759,1.4671,1.4672,1.4672,0,1.3551,1.361,1.3711,1.3759,1.3806,1.3883,1.3936,1.3991,1.4045,1.4139,1.4185,1.4273,1.4346,1.4482,1.4545,1.4629,1.4641,1.4681,1.4654,1.464,1.4643,1.464,1.4647,1.4685,1.4686,1.4687,1.4687,0,1.3632,1.3658,1.3733,1.3819,1.3881,1.3951,1.4021,1.4059,1.4126,1.4185,1.4273,1.433,1.4442,1.4529,1.462,1.4668,1.469,1.4695,1.471,1.4699,1.4678,1.4692,1.4577,1.4692,1.4692,1.4691,1.4691,1.4691,1.3682,1.3737,1.3817,1.39,1.3959,1.4024,1.4082,1.4137,1.4212,1.4308,1.4335,1.4427,1.4505,1.4629,1.4679,1.4752,1.4748,1.477,1.4775,1.478,1.4781,1.4665,1.4768,1.4768,1.4768,1.4768,1.4768,0,1.3767,1.382,1.3895,1.3993,1.4058,1.4072,1.4151,1.4205,1.4286,1.4357,1.4428,1.453,1.4615,1.4685,1.4773,1.4818,1.483,1.484,1.4838,1.4849,1.4779,1.4758,1.4829,1.4828,1.4828,1.4828,1.4828,1.4828,1.3819,1.3913,1.3948,1.4072,1.4125,1.4216,1.426,1.432,1.4377,1.4489,1.456,1.4605,1.4677,1.477,1.4849,1.4867,1.4898,1.4906,1.4927,1.486,1.4853,1.4847,1.4828,1.4912,1.4912,1.4991,1.4991,1.4992]}]]